Regional Weather Roundup
Issued by NWS State College, PA

Home | Current Version | Previous Version | Text Only | Print | Product List | Glossary On
Versions: 1 2 3 4 5 6 7 8 9 10 11 12 13 14 15 16 17 18 19 20 21 22 23 24 25 26 27 28 29 30 31 32 33 34 35 36 37 38 39 40 41 42 43 44 45 46 47 48 49 50
000
ASUS41 KCTP 211003
RWRCTP

REGIONAL WEATHER ROUNDUP
NATIONAL WEATHER SERVICE STATE COLLEGE PA
500 AM EST SUN JAN 21 2018

Note: "fair" indicates few or no clouds below 12,000 feet with no
significant weather and/or obstructions to visibility.

* = STATION THAT DOES NOT REPORT PRECIPITATION /E.G. RAIN...SNOW...ETC/
    THUNDER OR FOG.

PAZ002>004-007>009-013>016-020>023-029>032-211100-
WESTERN PENNSYLVANIA

CITY           SKY/WX    TMP DP  RH WIND       PRES   REMARKS
ERIE           CLOUDY    37  33  85 S6        30.09F FOG
MEADVILLE      CLOUDY    36  32  85 S6        30.08S
FRANKLIN*      CLOUDY    37  32  82 SW6       30.09S
NEW CASTLE     CLOUDY    38  33  82 CALM      30.12R
BEAVER COUNTY  NOT AVBL
BUTLER*        NOT AVBL
PITTSBURGH INT DRIZZLE   41  40  96 SW6       30.11S FOG
PITTSBURGH     CLOUDY    39  37  92 S8        30.11S FOG
INDIANA*       CLOUDY    37  34  87 W3        30.15S
LATROBE        LGT RAIN  39  39 100 S9        30.14S
WASHINGTON CO* LGT RAIN  41  40  96 S3        30.15S FOG
$$

PAZ004>006-010>012-017>019-024>028-033>037-041-042-045-046-049>053-211100-
CENTRAL PENNSYLVANIA

CITY           SKY/WX    TMP DP  RH WIND       PRES   REMARKS
BRADFORD       CLOUDY    35  32  88 SW3       30.06S
DUBOIS           N/A    N/A N/A N/A MISG      30.08S
CLEARFIELD     CLOUDY    39  35  86 SW3       30.10R
JOHNSTOWN      CLOUDY    39  38  96 W9        30.07S FOG
ALTOONA        CLOUDY    45  37  73 W12       30.11R
STATE COLLEGE  CLOUDY    40  34  78 SW5       30.11R
WILLIAMSPORT   CLOUDY    28  26  92 CALM      30.13R
SELINSGROVE    CLOUDY    30  27  88 CALM      30.14R
FT INDIANTOWN  CLOUDY    40  35  82 W3        30.13R
CAPITAL CITY   CLOUDY    33  30  88 CALM      30.13S
HARRISBURG     FAIR      32  31  96 CALM      30.13R
YORK           CLOUDY    32  31  96 CALM      30.12S
$$

PAZ038>040-043-044-047-048-054-055-060>062-067>071-211100-
EASTERN PENNSYLVANIA

CITY           SKY/WX    TMP DP  RH WIND       PRES   REMARKS
SCRANTON       FAIR      29  26  89 CALM      30.09R
MOUNT POCONO   FAIR      32  27  81 W9        30.04R
ALLENTOWN      FAIR      32  25  75 SW7       30.11R
QUAKERTOWN*    FAIR      37  28  70 MISG      30.12R
READING        MOCLDY    32  30  92 NW3       30.12R
LANCASTER      FAIR      29  29 100 W3        30.13R
COATESVILLE    FAIR      37  30  75 W6        30.14R
POTTSTOWN      FAIR      28  25  88 CALM      30.13R
BLUE BELL      FAIR      28  28 100 CALM      30.14R
DOYLESTOWN     FAIR      37  28  70 SW3       30.11R
WILLOW GROVE   NOT AVBL
NORTH PHILA    FAIR      35  29  78 CALM      30.14R
PHILADELPHIA   FAIR      33  28  81 W3        30.14R
$$




USA.gov is the U.S. government's official web portal to all federal, state and local government web resources and services.